******************************************************************************* JPL/HORIZONS 90377 Sedna (2003 VB12) 2022-May-19 20:34:27 Rec #: 90377 (+COV) Soln.date: 2022-Apr-13_14:33:15 # obs: 454 (1990-2022) IAU76/J2000 helio. ecliptic osc. elements (au, days, deg., period=Julian yrs): EPOCH= 2457577.5 ! 2016-Jul-08.00 (TDB) Residual RMS= .099394 EC= .8480834646428406 QR= 76.03680474308145 TP= 2479526.169034278 OM= 144.5263866414448 W= 311.5200318768571 IN= 11.92871162913267 A= 500.5169750897563 MA= 358.0681026495191 ADIST= 924.9971454364311 PER= 11197.89604 N= 8.8019E-5 ANGMOM= .203917342 DAN= 89.95278 DDN= 320.95865 L= 96.6680064 B= -8.902710000000001 MOID= 75.06420135 TP= 2076-Aug-10.6690342780 Asteroid physical parameters (km, seconds, rotational period in hours): GM= n.a. RAD= n.a. ROTPER= 10.273 H= 1.54 G= .150 B-V= n.a. ALBEDO= n.a. STYP= n.a. ASTEROID comments: 1: soln ref.= JPL#37, OCC=1 2: source=ORB ******************************************************************************* ******************************************************************************* Ephemeris / WWW_USER Thu May 19 20:34:27 2022 Pasadena, USA / Horizons ******************************************************************************* Target body name: 90377 Sedna (2003 VB12) {source: JPL#37} Center body name: Earth (399) {source: DE441} Center-site name: GEOCENTRIC ******************************************************************************* Start time : A.D. 2076-Jul-10 00:00:00.0000 UT Stop time : A.D. 2076-Jul-25 00:00:00.0000 UT Step-size : 240 minutes ******************************************************************************* Target pole/equ : No model available Target radii : (unavailable) Center geodetic : 0.00000000,0.00000000,0.0000000 {E-lon(deg),Lat(deg),Alt(km)} Center cylindric: 0.00000000,0.00000000,0.0000000 {E-lon(deg),Dxy(km),Dz(km)} Center pole/equ : ITRF93 {East-longitude positive} Center radii : 6378.1 x 6378.1 x 6356.8 km {Equator, meridian, pole} Target primary : Sun Vis. interferer : MOON (R_eq= 1737.400) km {source: DE441} Rel. light bend : Sun, EARTH {source: DE441} Rel. lght bnd GM: 1.3271E+11, 3.9860E+05 km^3/s^2 Small-body perts: Yes {source: SB441-N16} Atmos refraction: NO (AIRLESS) RA format : HMS Time format : CAL EOP file : eop.220518.p220811 EOP coverage : DATA-BASED 1962-JAN-20 TO 2022-MAY-18. PREDICTS-> 2022-AUG-10 Units conversion: 1 au= 149597870.700 km, c= 299792.458 km/s, 1 day= 86400.0 s Table cut-offs 1: Elevation (-90.0deg=NO ),Airmass (>38.000=NO), Daylight (NO ) Table cut-offs 2: Solar elongation ( 0.0,180.0=NO ),Local Hour Angle( 0.0=NO ) Table cut-offs 3: RA/DEC angular rate ( 0.0=NO ) ******************************************************************************* Initial IAU76/J2000 heliocentric ecliptic osculating elements (au, days, deg.): EPOCH= 2457577.5 ! 2016-Jul-08.00 (TDB) Residual RMS= .099394 EC= .8480834646428406 QR= 76.03680474308145 TP= 2479526.169034278 OM= 144.5263866414448 W= 311.5200318768571 IN= 11.92871162913267 Equivalent ICRF heliocentric cartesian coordinates (au, au/d): X= 4.785498380181175E+01 Y= 7.013183530203166E+01 Z= 1.111636814497881E+01 VX=-2.404323424153643E-03 VY= 5.868669090755115E-04 VZ= 4.417941731671821E-04 Asteroid physical parameters (km, seconds, rotational period in hours): GM= n.a. RAD= n.a. ROTPER= 10.273 H= 1.54 G= .150 B-V= n.a. ALBEDO= n.a. STYP= n.a. ******************************************************************************* Date__(UT)__HR:MN r rdot ************************************************** $$SOE 2076-Jul-10 00:00 76.18841768579 -0.0007240 2076-Jul-10 04:00 76.18841761676 -0.0007103 2076-Jul-10 08:00 76.18841754904 -0.0006966 2076-Jul-10 12:00 76.18841748265 -0.0006829 2076-Jul-10 16:00 76.18841741757 -0.0006693 2076-Jul-10 20:00 76.18841735380 -0.0006556 2076-Jul-11 00:00 76.18841729135 -0.0006419 2076-Jul-11 04:00 76.18841723022 -0.0006282 2076-Jul-11 08:00 76.18841717041 -0.0006146 2076-Jul-11 12:00 76.18841711191 -0.0006009 2076-Jul-11 16:00 76.18841705472 -0.0005872 2076-Jul-11 20:00 76.18841699886 -0.0005735 2076-Jul-12 00:00 76.18841694431 -0.0005598 2076-Jul-12 04:00 76.18841689108 -0.0005462 2076-Jul-12 08:00 76.18841683916 -0.0005325 2076-Jul-12 12:00 76.18841678856 -0.0005188 2076-Jul-12 16:00 76.18841673928 -0.0005051 2076-Jul-12 20:00 76.18841669131 -0.0004915 2076-Jul-13 00:00 76.18841664466 -0.0004778 2076-Jul-13 04:00 76.18841659933 -0.0004641 2076-Jul-13 08:00 76.18841655531 -0.0004504 2076-Jul-13 12:00 76.18841651261 -0.0004367 2076-Jul-13 16:00 76.18841647123 -0.0004231 2076-Jul-13 20:00 76.18841643116 -0.0004094 2076-Jul-14 00:00 76.18841639242 -0.0003957 2076-Jul-14 04:00 76.18841635498 -0.0003820 2076-Jul-14 08:00 76.18841631887 -0.0003684 2076-Jul-14 12:00 76.18841628407 -0.0003547 2076-Jul-14 16:00 76.18841625058 -0.0003410 2076-Jul-14 20:00 76.18841621842 -0.0003273 2076-Jul-15 00:00 76.18841618757 -0.0003136 2076-Jul-15 04:00 76.18841615804 -0.0003000 2076-Jul-15 08:00 76.18841612982 -0.0002863 2076-Jul-15 12:00 76.18841610292 -0.0002726 2076-Jul-15 16:00 76.18841607734 -0.0002589 2076-Jul-15 20:00 76.18841605307 -0.0002452 2076-Jul-16 00:00 76.18841603012 -0.0002316 2076-Jul-16 04:00 76.18841600849 -0.0002179 2076-Jul-16 08:00 76.18841598817 -0.0002042 2076-Jul-16 12:00 76.18841596917 -0.0001905 2076-Jul-16 16:00 76.18841595149 -0.0001769 2076-Jul-16 20:00 76.18841593512 -0.0001632 2076-Jul-17 00:00 76.18841592007 -0.0001495 2076-Jul-17 04:00 76.18841590634 -0.0001358 2076-Jul-17 08:00 76.18841589392 -0.0001222 2076-Jul-17 12:00 76.18841588282 -0.0001085 2076-Jul-17 16:00 76.18841587303 -0.0000948 2076-Jul-17 20:00 76.18841586457 -0.0000811 2076-Jul-18 00:00 76.18841585741 -0.0000675 2076-Jul-18 04:00 76.18841585158 -0.0000538 2076-Jul-18 08:00 76.18841584706 -0.0000401 2076-Jul-18 12:00 76.18841584385 -0.0000265 2076-Jul-18 16:00 76.18841584196 -0.0000128 2076-Jul-18 20:00 76.18841584139 0.0000009 2076-Jul-19 00:00 76.18841584214 0.0000146 2076-Jul-19 04:00 76.18841584420 0.0000282 2076-Jul-19 08:00 76.18841584757 0.0000419 2076-Jul-19 12:00 76.18841585226 0.0000556 2076-Jul-19 16:00 76.18841585827 0.0000692 2076-Jul-19 20:00 76.18841586559 0.0000829 2076-Jul-20 00:00 76.18841587423 0.0000966 2076-Jul-20 04:00 76.18841588418 0.0001102 2076-Jul-20 08:00 76.18841589545 0.0001239 2076-Jul-20 12:00 76.18841590804 0.0001376 2076-Jul-20 16:00 76.18841592194 0.0001512 2076-Jul-20 20:00 76.18841593715 0.0001649 2076-Jul-21 00:00 76.18841595369 0.0001786 2076-Jul-21 04:00 76.18841597153 0.0001922 2076-Jul-21 08:00 76.18841599069 0.0002059 2076-Jul-21 12:00 76.18841601117 0.0002195 2076-Jul-21 16:00 76.18841603296 0.0002332 2076-Jul-21 20:00 76.18841605607 0.0002469 2076-Jul-22 00:00 76.18841608049 0.0002605 2076-Jul-22 04:00 76.18841610622 0.0002742 2076-Jul-22 08:00 76.18841613327 0.0002878 2076-Jul-22 12:00 76.18841616164 0.0003015 2076-Jul-22 16:00 76.18841619132 0.0003151 2076-Jul-22 20:00 76.18841622231 0.0003288 2076-Jul-23 00:00 76.18841625462 0.0003425 2076-Jul-23 04:00 76.18841628824 0.0003561 2076-Jul-23 08:00 76.18841632318 0.0003698 2076-Jul-23 12:00 76.18841635943 0.0003834 2076-Jul-23 16:00 76.18841639699 0.0003971 2076-Jul-23 20:00 76.18841643587 0.0004107 2076-Jul-24 00:00 76.18841647606 0.0004244 2076-Jul-24 04:00 76.18841651757 0.0004380 2076-Jul-24 08:00 76.18841656039 0.0004517 2076-Jul-24 12:00 76.18841660452 0.0004653 2076-Jul-24 16:00 76.18841664997 0.0004789 2076-Jul-24 20:00 76.18841669673 0.0004926 2076-Jul-25 00:00 76.18841674481 0.0005062 $$EOE ******************************************************************************* Column meaning: TIME Times PRIOR to 1962 are UT1, a mean-solar time closely related to the prior but now-deprecated GMT. Times AFTER 1962 are in UTC, the current civil or "wall-clock" time-scale. UTC is kept within 0.9 seconds of UT1 using integer leap-seconds for 1972 and later years. Conversion from the internal Barycentric Dynamical Time (TDB) of solar system dynamics to the non-uniform civil UT time-scale requested for output has not been determined for UTC times after the next July or January 1st. Therefore, the last known leap-second is used as a constant over future intervals. Time tags refer to the UT time-scale conversion from TDB on Earth regardless of observer location within the solar system, although clock rates may differ due to the local gravity field and no analog to "UT" may be defined for that location. Any 'b' symbol in the 1st-column denotes a B.C. date. First-column blank (" ") denotes an A.D. date. Calendar dates prior to 1582-Oct-15 are in the Julian calendar system. Later calendar dates are in the Gregorian system. NOTE: "n.a." in output means quantity "not available" at the print-time. 'r rdot' = The Sun's apparent range ("r", light-time aberrated) and range-rate ("rdot") relative to the target center, as seen by the observer. A positive "rdot" means the target center was moving away from the Sun, negative means moving toward the Sun. Units: AU and KM/S Computations by ... Solar System Dynamics Group, Horizons On-Line Ephemeris System 4800 Oak Grove Drive, Jet Propulsion Laboratory Pasadena, CA 91109 USA General site: https://ssd.jpl.nasa.gov/ Mailing list: https://ssd.jpl.nasa.gov/email_list.html System news : https://ssd.jpl.nasa.gov/horizons/news.html User Guide : https://ssd.jpl.nasa.gov/horizons/manual.html Connect : browser https://ssd.jpl.nasa.gov/horizons/app.html#/x API https://ssd-api.jpl.nasa.gov/doc/horizons.html command-line telnet ssd.jpl.nasa.gov 6775 e-mail/batch https://ssd.jpl.nasa.gov/ftp/ssd/hrzn_batch.txt scripts https://ssd.jpl.nasa.gov/ftp/ssd/SCRIPTS Author : Jon.D.Giorgini@jpl.nasa.gov ******************************************************************************* !$$SOF COMMAND = 'Sedna' START_TIME = '2076-Jul-10' STOP_TIME = '2076-Jul-25' STEP_SIZE = '4 hours' QUANTITIES = '19'